Hourly Data Report for October 29, 2019

All times are specified in Local Standard Time (LST). Add 1 hour to adjust for Daylight Saving Time where and when it is observed.

SEPT-ILES
QUEBEC
Current Station Operator: ECCC - MSC

50°13'00.000" N
66°15'00.000" W
52.60 m
7047914
71279
XZV

Download Data

Hourly Data (October 2019)
Hourly Data Report for October 29, 2019
TIME Temp Definition
°C
Dew Point Definition
°C
Rel Hum Definition
%
Wind Dir Definition
10's deg

Wind Spd Definition
km/h
Visibility Definition
km
Stn Press Definition
kPa
Hmdx Definition


Wind Chill Definition


Weather Definition


00:00 4.6 2.5 87 7 5   102.01     LegendNANA
01:00 4.3 3.4 94 7 5   102.01     LegendNANA
02:00 4.2 3.6 96 7 5   101.99     LegendNANA
03:00 4.3 3.8 97 8 4   101.97     LegendNANA
04:00 4.6 4.2 97 7 4   101.99     LegendNANA
05:00 4.4 4.1 97 8 6   101.98     LegendNANA
06:00 4.3 4.0 98 6 5   102.00     LegendNANA
07:00 4.5 4.1 97 7 4   102.03     LegendNANA
08:00 4.8 4.4 97 7 6   102.06     LegendNANA
09:00 5.5 5.0 97 8 7   102.04     LegendNANA
10:00 5.6 5.1 97 9 8   102.01     LegendNANA
11:00 5.8 5.3 97 10 6   101.97     LegendNANA
12:00 5.8 5.3 96 10 7   101.91     LegendNANA
13:00 6.2 5.6 96 11 10   101.85     LegendNANA
14:00 6.0 5.6 97 12 9   101.77     LegendNANA
15:00 6.1 5.6 97 10 6   101.74     LegendNANA
16:00 6.0 5.5 97 8 6   101.74     LegendNANA
17:00 5.9 5.4 97 9 7   101.74     LegendNANA
18:00 5.8 5.3 97 9 7   101.68     LegendNANA
19:00 5.8 5.3 96 8 7   101.70     LegendNANA
20:00 5.6 5.2 97 7 3   101.67     LegendNANA
21:00 5.6 5.1 97 8 6   101.60     LegendNANA
22:00 5.9 5.6 98 9 6   101.50     LegendNANA
23:00 6.1 5.8 98 7 4   101.52     LegendNANA

Notes on Data Quality.

Legend

  • E = Estimated
  • M = Missing
  • NA = Not Available
Date modified: